Regional Weather Roundup
Issued by NWS

Home | Current Version | Previous Version | Text Only | Print | Product List | Glossary Off
Versions: 1 2 3 4 5 6 7 8 9 10 11 12 13 14 15 16 17 18 19 20 21 22 23 24 25 26 27

000
ASUS45 KPSR 231110
RWRAZ

ARIZONA HOURLY REGIONAL WEATHER ROUNDUP
NATIONAL WEATHER SERVICE PHOENIX AZ
400 AM MST SUN APR 23 2017

NOTE: FAIR INDICATES FEW OR NO CLOUDS BELOW 12,000 FEET WITH NO
SIGNIFICANT WEATHER AND/OR OBSTRUCTIONS TO VISIBILITY.

AZZ001>003-036-231200-
NORTHWEST ARIZONA

CITY           SKY/WX    TMP DP  RH WIND       PRES   REMARKS
BULLHEAD CITY  CLEAR     66  25  20 CALM      29.75S
KINGMAN        CLEAR     52  26  36 SE9       29.88F
$$

AZZ004>008-015-016-018-231200-
NORTH CENTRAL ARIZONA

CITY           SKY/WX    TMP DP  RH WIND       PRES   REMARKS
GRAND CANYON   CLEAR     31  22  69 CALM      30.07F
WILLIAMS       CLEAR     37  23  56 S9        30.07F WCI  31
PRESCOTT       CLEAR     47  25  42 S8        30.00S
FLAGSTAFF      CLEAR     31  21  66 CALM      30.10F
PAYSON         CLEAR     52  23  32 CALM      30.05S
PAGE           PTCLDY    50  23  34 CALM      29.97F
$$

AZZ009>014-017-231200-
NORTHEAST ARIZONA

CITY           SKY/WX    TMP DP  RH WIND       PRES   REMARKS
WINSLOW        CLEAR     40  20  44 S6        30.03F
SAINT JOHNS    PTCLDY    36  19  50 NW3       30.07S
WINDOW ROCK    CLEAR     32  17  54 CALM      30.15F
SHOW LOW       PTCLDY    46  18  31 S13       30.10F
$$

AZZ540-542>544-546-548-231200-
GREATER PHOENIX AREA

CITY           SKY/WX    TMP DP  RH WIND       PRES   REMARKS
PHOENIX        CLEAR     71  30  21 E10       29.77F
BUCKEYE        CLEAR     64  27  24 E7        29.78S
LUKE AFB       CLEAR     63  34  33 N5        29.78S
DEER VALLEY    CLEAR     63  27  25 E7        29.80S
SCOTTSDALE     CLEAR     65  38  36 CALM      29.81S
MESA-GATEWAY   CLEAR     64  27  24 SE9       29.80F
$$

AZZ539-553-231200-
SOUTHWEST MARICOPA COUNTY AND PINAL COUNTY

CITY           SKY/WX    TMP DP  RH WIND       PRES   REMARKS
CASA GRANDE    CLEAR     62  21  20 NE6       29.81F
GILA BEND      FAIR      67  17  14 SE7       29.75F
$$

AZZ503-504-507>509-231200-
SOUTHEAST ARIZONA

CITY           SKY/WX    TMP DP  RH WIND       PRES   REMARKS
TUCSON         CLEAR     62  16  16 SE8       29.90F
DAVIS-MONTHAN  CLEAR     63  18  17 SE10      29.89F
NOGALES        CLEAR     52  16  24 NE6       29.97S
SIERRA VISTA   CLEAR     59  14  17 SW5       30.03S
DOUGLAS        CLEAR     54  27  35 CALM      30.01S
SAFFORD        CLEAR     63  34  33 SE12      30.02S
$$

AZZ532-231200-
SOUTHWEST ARIZONA

CITY           SKY/WX    TMP DP  RH WIND       PRES   REMARKS
YUMA           PTCLDY    67  34  29 S5        29.73S
$$

CAZ041-043-047-048-061-525>527-560>570-231200-
SOUTHERN CALIFORNIA

CITY           SKY/WX    TMP DP  RH WIND       PRES   REMARKS
DOWNTOWN L.A.  MOCLDY    62  54  74 CALM      29.83S
L.A. AIRPORT   PTCLDY    59  55  87 SW6       29.83S
SAN DIEGO      PTCLDY    64  57  78 E6        29.86F
BURBANK        PTCLDY    63  51  65 E8        29.83S
ONTARIO        MOCLDY    62  48  60 CALM      29.84S
RIVERSIDE      MOCLDY    59  49  69 E5        29.84F
PALM SPRINGS   CLEAR     72  40  31 CALM      29.74F
EL CENTRO NAS  CLEAR     68  25  19 W8        29.73S
IMPERIAL       CLEAR     66  38  35 W8        29.71S
BLYTHE         CLEAR     64  29  26 N8        29.72F
NEEDLES        CLEAR     68  24  19 NW5       29.75S
$$

NVZ020-UTZ003-231200-
SOUTHERN NEVADA-UTAH

CITY           SKY/WX    TMP DP  RH WIND       PRES   REMARKS
LAS VEGAS      MOCLDY    71  21  15 VRB6      29.76F
SALT LAKE CITY MOCLDY    52  34  50 S10       29.88F
$$

NMZ009-TXZ055-231200-
NEW MEXICO-WEST TEXAS

CITY           SKY/WX    TMP DP  RH WIND       PRES   REMARKS
ALBUQUERQUE    CLOUDY    47  29  49 NE17      30.21F
EL PASO        CLEAR     54  32  43 E10       30.19R
$$


........................KEY........................
SKY/WX - SKY CONDITION/WEATHER
TMP    - TEMPERATURE IN FAHRENHEIT
DP     - DEW POINT IN FAHRENHEIT
RH     - RELATIVE HUMIDITY IN PERCENT
WIND   - DIRECTION AND SPEED IN MILES PER HOUR (MPH)
VRB    - VARIABLE WIND DIRECTION
PRES   - MEAN SEA LEVEL PRESSURE IN INCHES OF MERCURY
         F - FALLING PRESSURE   R - RISING PRESSURE
         S - STEADY PRESSURE
VSB    - VISIBILITY IN MILES
HX     - HEAT INDEX IN FAHRENHEIT
WCI    - WIND CHILL INDEX IN FAHRENHEIT
TC     - TEMPERATURE IN CELSIUS WHICH IS ALSO KNOWN AS
         TEMPERATURE IN CENTIGRADE
AFB    - AIR FORCE BASE
         LUKE AFB IS LUKE AIR FORCE BASE
         DAVIS-MONTHAN IS DAVIS-MONTHAN AIR FORCE BASE
NAS    - NAVAL AIR STATION
         EL CENTRO NAS IS EL CENTRO NAVAL AIR STATION
N/A    - NOT AVAILABLE





USA.gov is the U.S. government's official web portal to all federal, state and local government web resources and services.